Tracking 29892 objects as of 21-Nov-2024
HD Live streaming from Space Station
objects crossing your sky now

STARLINK-4029

Track STARLINK-4029 now!
10-day predictions
STARLINK-4029 is classified as:


NORAD ID: 52685
Int'l Code: 2022-053AF
Perigee: 545.8 km
Apogee: 547.9 km
Inclination: 53.2 °
Period: 95.4 minutes
Semi major axis: 6917 km
RCS: Unknown
Launch date: May 18, 2022
Source: United States (US)
Launch site: AIR FORCE EASTERN TEST RANGE (AFETR)
Your satellite tracking list
Your tracking list is empty




NASA's NSSDC Master Catalog

Two Line Element Set (TLE):
1 52685U 22053AF  24325.84745439  .00001172  00000-0  91711-4 0  9992
2 52685  53.2158 111.2775 0001508  80.7406 279.3757 15.08845405139211
Source of the keplerian elements: AFSPC